Date String (YYYY-MM-DD hh:mm:ss) UTC,Instrument flags,Ambient pressure (hPa),Sample flow (lpm),Bypass flow (lpm),Sample temperature (°C),Ambient temperature (°C),ASC tube jacket temperature (°C),LED temperature (°C),Box temperature (°C),Sample RH (%),Span deviation,Mass concentration (μg/m³),Mass concentration (μg/m³),Mass concentration (μg/m³)
DateTimeUTC,F1_M11,P_M11,Q1_M11,Q2_M11,T1_M11,T2_M11,T3_M11,T4_M11,T5_M11,U1_M11,ZSPAN_M11,X0_M11,X2_M11,X1_M11
2022-07-11 17:00:00,,0835.4,5.00,0.00,30.0,27.6,00.0,38.7,31.7,30.6,0000.0,0013.46,0004.91,0004.12
2022-07-11 17:01:00,,0835.4,5.00,0.00,29.9,27.5,00.0,38.7,31.6,30.4,0000.0,0013.45,0004.91,0004.13
2022-07-11 17:02:00,,0835.4,4.99,0.00,29.8,27.6,00.0,38.7,31.6,30.6,0000.0,0014.28,0004.96,0004.15
2022-07-11 17:03:00,,0835.4,5.00,0.00,29.8,27.8,00.0,38.6,31.5,30.5,0000.0,0014.63,0005.01,0004.18
2022-07-11 17:04:00,,0835.4,4.99,0.00,29.8,27.9,00.0,38.6,31.6,30.7,0000.0,0014.69,0005.02,0004.19
2022-07-11 17:05:00,,0835.4,5.01,0.00,29.8,28.1,00.0,38.6,31.6,30.7,0000.0,0014.84,0005.03,0004.19
2022-07-11 17:06:00,,0835.4,5.00,0.00,29.8,28.2,00.0,38.6,31.6,30.6,0000.0,0015.15,0005.06,0004.19
2022-07-11 17:07:00,,0835.4,5.00,0.00,29.8,28.3,00.0,38.6,31.7,30.6,0000.0,0015.49,0005.07,0004.18
2022-07-11 17:08:00,,0835.4,5.00,0.00,29.8,28.4,00.0,38.6,31.7,30.6,0000.0,0015.76,0005.06,0004.18
2022-07-11 17:09:00,,0835.3,5.00,0.00,29.8,28.5,00.0,38.6,31.7,30.6,0000.0,0016.17,0005.05,0004.18
2022-07-11 17:10:00,,0835.4,5.00,0.00,29.9,28.6,00.0,38.7,31.7,30.6,0000.0,0015.87,0005.04,0004.19
2022-07-11 17:11:00,,0835.3,5.00,0.00,29.9,28.7,00.0,38.7,31.8,30.6,0000.0,0016.10,0005.07,0004.19
2022-07-11 17:12:00,,0835.3,5.00,0.00,29.9,28.8,00.0,38.7,31.8,30.6,0000.0,0016.05,0005.08,0004.19
2022-07-11 17:13:00,,0835.2,4.99,0.00,29.9,28.8,00.0,38.7,31.9,30.6,0000.0,0015.38,0005.05,0004.18
2022-07-11 17:14:00,,0835.3,5.00,0.00,30.0,28.9,00.0,38.7,31.9,30.5,0000.0,0014.47,0005.02,0004.17
2022-07-11 17:15:00,,0835.3,4.99,0.00,30.0,28.9,00.0,38.7,31.9,30.5,0000.0,0014.24,0005.01,0004.16
2022-07-11 17:16:00,,0835.3,4.99,0.00,30.0,28.8,00.0,38.7,31.9,30.5,0000.0,0014.83,0005.03,0004.16
2022-07-11 17:17:00,,0835.2,4.99,0.00,30.0,28.1,00.0,38.7,31.8,30.3,0000.0,0015.43,0004.99,0004.17
2022-07-11 17:18:00,,0835.3,5.00,0.00,29.9,27.7,00.0,38.6,31.7,30.2,0000.0,0015.22,0005.00,0004.17
2022-07-11 17:19:00,,0835.3,5.00,0.00,29.9,27.6,00.0,38.6,31.6,30.3,0000.0,0015.89,0005.08,0004.18
2022-07-11 17:20:00,,0835.2,5.01,0.00,29.8,27.7,00.0,38.6,31.5,30.5,0000.0,0015.72,0005.15,0004.19
2022-07-11 17:21:00,,0835.2,4.99,0.00,29.8,27.8,00.0,38.6,31.5,30.6,0000.0,0016.34,0005.16,0004.22
2022-07-11 17:22:00,,0835.2,5.00,0.00,29.8,27.9,00.0,38.6,31.5,30.5,0000.0,0016.41,0005.18,0004.25
2022-07-11 17:23:00,,0835.2,5.00,0.00,29.7,28.0,00.0,38.6,31.6,30.4,0000.0,0016.45,0005.21,0004.28
2022-07-11 17:24:00,,0835.2,5.00,0.00,29.8,28.2,00.0,38.6,31.6,30.4,0000.0,0015.51,0005.24,0004.30
2022-07-11 17:25:00,,0835.2,5.00,0.00,29.8,28.3,00.0,38.6,31.6,30.4,0000.0,0015.10,0005.26,0004.32
2022-07-11 17:26:00,,0835.2,5.01,0.00,29.8,28.4,00.0,38.6,31.7,30.6,0000.0,0015.35,0005.29,0004.34
2022-07-11 17:27:00,,0835.2,5.00,0.00,29.8,28.5,00.0,38.6,31.7,30.8,0000.0,0015.57,0005.31,0004.35
2022-07-11 17:28:00,,0835.2,5.01,0.00,29.8,28.6,00.0,38.6,31.8,30.9,0000.0,0014.97,0005.35,0004.34
2022-07-11 17:29:00,,0835.1,5.00,0.00,29.8,28.7,00.0,38.6,31.7,30.6,0000.0,0014.80,0005.38,0004.34
2022-07-11 17:30:00,,0835.2,5.00,0.00,29.9,28.7,00.0,38.6,31.8,30.5,0000.0,0013.98,0005.40,0004.36
2022-07-11 17:31:00,,0835.2,5.00,0.00,29.9,28.8,00.0,38.6,31.9,30.3,0000.0,0013.90,0005.39,0004.37
2022-07-11 17:32:00,,0835.1,4.99,0.00,29.9,28.8,00.0,38.7,31.9,30.4,0000.0,0014.00,0005.42,0004.36
2022-07-11 17:33:00,,0835.1,5.00,0.00,29.9,28.9,00.0,38.7,31.9,30.6,0000.0,0014.24,0005.40,0004.33
2022-07-11 17:34:00,,0835.1,5.00,0.00,30.0,28.9,00.0,38.7,31.9,30.5,0000.0,0014.71,0005.35,0004.30
2022-07-11 17:35:00,,0835.1,4.99,0.00,30.0,28.9,00.0,38.7,31.9,30.3,0000.0,0015.21,0005.30,0004.28
2022-07-11 17:36:00,,0835.0,5.01,0.00,30.0,28.2,00.0,38.6,31.8,30.4,0000.0,0015.94,0005.31,0004.27
2022-07-11 17:37:00,,0835.0,5.00,0.00,29.9,27.7,00.0,38.6,31.7,30.4,0000.0,0015.68,0005.33,0004.26
2022-07-11 17:38:00,,0835.0,5.01,0.00,29.9,27.7,00.0,38.6,31.6,30.7,0000.0,0015.33,0005.33,0004.25
2022-07-11 17:39:00,,0835.0,4.99,0.00,29.8,27.7,00.0,38.6,31.5,30.9,0000.0,0014.92,0005.30,0004.25
2022-07-11 17:40:00,,0835.0,5.01,0.00,29.8,27.8,00.0,38.6,31.5,30.6,0000.0,0014.71,0005.30,0004.24
2022-07-11 17:41:00,,0835.0,4.99,0.00,29.8,27.9,00.0,38.6,31.5,30.5,0000.0,0015.29,0005.24,0004.25
2022-07-11 17:42:00,,0835.0,5.00,0.00,29.8,28.1,00.0,38.6,31.6,30.8,0000.0,0015.75,0005.22,0004.24
2022-07-11 17:43:00,,0834.9,5.00,0.00,29.8,28.2,00.0,38.6,31.6,30.8,0000.0,0015.84,0005.14,0004.23
2022-07-11 17:44:00,,0835.0,5.00,0.00,29.8,28.3,00.0,38.6,31.7,30.7,0000.0,0015.73,0005.16,0004.24
2022-07-11 17:45:00,,0834.9,5.00,0.00,29.8,28.4,00.0,38.6,31.7,30.7,0000.0,0014.84,0005.19,0004.26
2022-07-11 17:46:00,,0834.9,5.01,0.00,29.8,28.5,00.0,38.6,31.7,30.6,0000.0,0014.01,0005.21,0004.28
2022-07-11 17:47:00,,0834.9,5.00,0.00,29.8,28.6,00.0,38.6,31.8,30.7,0000.0,0013.19,0005.21,0004.29
2022-07-11 17:48:00,,0834.9,5.00,0.00,29.9,28.7,00.0,38.6,31.7,30.4,0000.0,0013.14,0005.21,0004.31
2022-07-11 17:49:00,,0834.9,5.00,0.00,29.9,28.7,00.0,38.6,31.8,30.3,0000.0,0012.64,0005.16,0004.34
2022-07-11 17:50:00,,0834.9,5.00,0.00,29.9,28.8,00.0,38.6,31.8,30.3,0000.0,0012.85,0005.18,0004.36
2022-07-11 17:51:00,,0834.9,4.99,0.00,29.9,28.9,00.0,38.7,31.9,30.7,0000.0,0012.90,0005.16,0004.37
2022-07-11 17:52:00,,0834.8,4.99,0.00,30.0,28.8,00.0,38.7,31.9,30.7,0000.0,0012.29,0005.19,0004.36
2022-07-11 17:53:00,,0834.8,5.01,0.00,29.9,28.2,00.0,38.6,31.8,30.5,0000.0,0011.66,0005.21,0004.38
2022-07-11 17:54:00,,0834.7,5.00,0.00,29.9,27.8,00.0,38.6,31.7,30.6,0000.0,0011.39,0005.25,0004.40
2022-07-11 17:55:00,,0834.7,5.00,0.00,29.9,27.7,00.0,38.6,31.6,30.6,0000.0,0011.58,0005.29,0004.41
2022-07-11 17:56:00,,0834.7,4.99,0.00,29.8,27.7,00.0,38.6,31.5,30.8,0000.0,0012.11,0005.31,0004.42
2022-07-11 17:57:00,,0834.7,5.01,0.00,29.8,27.8,00.0,38.6,31.5,30.7,0000.0,0012.51,0005.33,0004.43
2022-07-11 17:58:00,,0834.7,5.00,0.00,29.7,27.9,00.0,38.5,31.5,30.8,0000.0,0013.11,0005.35,0004.45
2022-07-11 17:59:00,,0834.7,5.00,0.00,29.7,28.1,00.0,38.6,31.5,30.8,0000.0,0013.47,0005.33,0004.46
